{"data":{"norad_id":58387,"epoch":"2026-09-20T04:03:34.490880Z","epoch_age_seconds":172182,"freshness":"FRESH","line1":"1 58387U 23178P   26263.16914920  .00001286  00000+0  49177-4 0  9991","line2":"2 58387  53.1607 173.6019 0000476  71.3321 288.7733 15.34406423159720","mean_motion":15.34406423,"eccentricity":4.76e-5,"inclination_deg":53.1607,"raan_deg":173.6019,"arg_perigee_deg":71.3321,"mean_anomaly_deg":288.7733,"bstar":4.9177e-5,"rev_number":15972,"period_min":93.847365236166,"perigee_km":462.35852667738,"apogee_km":463.00977285084,"semimajor_km":6840.8211497641,"source":"CELESTRAK","updated_at":"2026-09-21T09:00:33.867509Z"}}